Regional Weather Roundup
Issued by NWS Huntsville, AL

Home | Current Version | Previous Version | Text Only | Print | Product List | Glossary On
Versions: 1 2 3 4 5 6 7 8 9 10 11 12 13 14 15 16 17 18 19 20 21 22 23 24 25 26 27
000
ASUS44 KHUN 250310
RWRHUN

WEATHER ROUNDUP FOR THE TENNESSEE VALLEY
NATIONAL WEATHER SERVICE HUNTSVILLE AL
1000 PM CDT WED MAY 24 2017

ALZ001>004-250400-
NORTHWEST ALABAMA

CITY           SKY/WX    TMP DP  RH WIND       PRES   REMARKS
COURTLAND HCN    N/A     57 N/A N/A W9          N/A
RUSSELLVILLE     N/A     55 N/A N/A MISG        N/A
SHOALS AIRPORT CLOUDY    57  53  86 W10       29.64R
SHOALS TVA RES   N/A     57 N/A N/A MISG        N/A
$$

ALZ005>007-016-250400-
NORTH CENTRAL ALABAMA

CITY           SKY/WX    TMP DP  RH WIND       PRES   REMARKS
CULLMAN AG STN   N/A     55 N/A N/A NW5         N/A
DECATUR AP     LGT RAIN  57  54  89 W13       29.63R
HUNTSVILLE AP  CLOUDY    58  56  93 VRB6      29.62R
MERIDIANVILLE  LGT RAIN  55  52  88 W5        29.62R
REDSTONE ARSN  CLOUDY    57  55  94 CALM      29.62R
VINEMONT AP    DRIZZLE   54  52  93 W5        29.65R
$$

ALZ008>010-250400-
NORTHEAST ALABAMA

CITY           SKY/WX    TMP DP  RH WIND       PRES   REMARKS
ALBERTVILLE    CLOUDY    55  55 100 W7        29.62R
FORT PAYNE     PTCLDY    57  52  82 CALM      29.59R
SCOTTSBORO AP  CLOUDY    61  54  77 NW7G23    29.61R
SCOTTSBORO HCN   N/A     61 N/A N/A MISG        N/A
VALLEY HEAD      N/A     55 N/A N/A MISG        N/A
$$

TNZ076-096-097-250400-
SOUTHEASTERN MIDDLE TENNESSEE

CITY           SKY/WX    TMP DP  RH WIND       PRES   REMARKS
TULLAHOMA      MOCLDY    55  54  94 NW9       29.62R
WINCHESTER     MOCLDY    55  55 100 W8          N/A
$$

...SURROUNDING SITES...

CITY           SKY/WX    TMP DP  RH WIND       PRES   REMARKS
ATLANTA        PTCLDY    62  52  69 W9        29.58R
ANNISTON       CLOUDY    57  56  96 SW7       29.63R
BIRMINGHAM     LGT RAIN  58  55  90 W8        29.66R
CHATTANOOGA    PTCLDY    58  52  80 W3        29.59R
CORINTH        FAIR      55  54  94 W8        29.63R
DALTON         PTCLDY    55  55 100 CALM      29.60R
GADSDEN        CLOUDY    59  56  89 W9        29.62R
GOLDEN TRNGL   CLOUDY    59  52  77 W3        29.63R
HALEYVILLE     LGT RAIN  55  53  93 VRB5      29.66R
JACKSON TN     CLOUDY    59  50  72 W8        29.62R
MEMPHIS        PTCLDY    58  51  78 W5        29.65R
NASHVILLE      CLOUDY    58  52  80 NW6       29.58R
OXFORD MS      FAIR      54  52  94 W3        29.69R
ROME           CLOUDY    60  59  96 CALM      29.58R
SAVANNAH       CLOUDY    57  55  94 SW5       29.62R
SELMER         CLOUDY    55  54  94 W6        29.62R
TUPELO         CLOUDY    58  54  86 SW5       29.65R
TUSCALOOSA     CLOUDY    59  57  93 W6        29.67R
$$

...GULF COAST WEATHER...

CITY           SKY/WX    TMP DP  RH WIND       PRES   REMARKS
GULFPORT       CLEAR     65  53  65 W3        29.72R
PASCAGOULA     CLEAR     63  55  75 CALM      29.72R
MOBILE         CLEAR     65  50  58 W5        29.72R
GULF SHORES    CLEAR     68  52  57 NW7       29.70R
PENSACOLA      PTCLDY    69  50  50 NW5       29.69R
DESTIN         PTCLDY    74  55  51 CALM      29.68R
PANAMA CITY    PTCLDY    73  54  49 W12       29.68R
APPALACHICOLA  CLEAR     71  56  58 W10       29.68R
$$





USA.gov is the U.S. government's official web portal to all federal, state and local government web resources and services.